This demonstration page uses our WeatherBlox Daily Observations layout. Learn more.

Left ArrowRight Arrow

41.55636, -103.73856

Hourly Observations for December 4, 2020

Temp ( °F °C ) Dew Point ( °F °C ) Humidity (%) Winds ( mph kmh ) Pressure ( in mb ) Visibility ( mi km ) Precip ( " mm )
12:58 am 00:58 Clear 31 -0.5 9 -12.8 39 39 W 8 13 30.26 1025 10 16 0.00 0.00
1:58 am 01:58 Clear 28 -2 9 -12.8 44 44 WNW 8 13 30.25 1025 10 16 0.00 0.00
2:58 am 02:58 Clear 31 -0.6 9 -12.6 40 40 W 10 17 30.25 1025 10 16 0.00 0.00
3:58 am 03:58 Clear 32 -0.2 9 -12.9 38 38 W 10 17 30.25 1025 10 16 0.00 0.00
4:58 am 04:58 Clear 30 -0.9 8 -13.2 39 39 W 10 17 30.28 1025 10 16 0.00 0.00
5:58 am 05:58 Clear 29 -1.7 8 -13.5 41 41 WNW 9 15 30.31 1026 10 16 0.00 0.00
6:58 am 06:58 Clear 31 -0.7 6 -14.4 35 35 W 8 13 30.32 1027 10 16 0.00 0.00
7:58 am 07:58 Sunny 30 -0.9 5 -15 34 34 WNW 7 11 30.33 1027 10 16 0.00 0.00
8:58 am 08:58 Sunny 37 2.7 7 -13.9 29 29 W 9 15 30.34 1027 10 16 0.00 0.00
9:58 am 09:58 Sunny 44 6.7 7 -13.9 22 22 WNW 14 22 30.32 1027 10 16 0.00 0.00
10:58 am 10:58 Sunny 50 9.9 8 -13.3 18 18 NW 21 33 30.30 1026 10 16 0.00 0.00
11:58 am 11:58 Sunny 53 11.8 8 -13.2 16 16 NW 21 33 30.27 1025 10 16 0.00 0.00
12:58 pm 12:58 Sunny 55 12.6 7 -13.7 15 15 NW 20 31 30.25 1024 10 16 0.00 0.00
1:58 pm 13:58 Sunny 56 13.1 7 -13.7 14 14 NW 18 30 30.24 1024 10 16 0.00 0.00
2:58 pm 14:58 Sunny 55 12.8 10 -12.4 16 16 NNW 18 30 30.25 1024 10 16 0.00 0.00
3:58 pm 15:58 Sunny 50 10.2 10 -12 20 20 NW 13 20 30.27 1025 10 16 0.00 0.00
4:58 pm 16:58 Clear 46 7.7 11 -11.9 24 24 WNW 12 19 30.30 1026 10 16 0.00 0.00
5:59 pm 17:59 Clear 36 2.3 10 -12.1 34 34 W 9 15 30.38 1029 10 16 0.00 0.00
6:58 pm 18:58 Clear 36 2.2 9 -12.6 33 33 WNW 14 22 30.38 1029 10 16 0.00 0.00
7:58 pm 19:58 Clear 35 1.4 9 -12.7 35 35 W 8 13 30.41 1030 10 16 0.00 0.00
8:58 pm 20:58 Clear 35 1.8 9 -12.6 34 34 WNW 7 11 30.41 1030 10 16 0.00 0.00
9:58 pm 21:58 Clear 35 1.7 9 -12.6 34 34 WNW 6 9 30.40 1029 10 16 0.00 0.00
10:58 pm 22:58 Clear 34 1.1 10 -12.4 36 36 WSW 7 11 30.42 1030 10 16 0.00 0.00
11:58 pm 23:58 Clear 34 1 11 -11.9 38 38 W 9 15 30.42 1030 10 16 0.00 0.00

Powered by AerisWeather